| time (UTC) | temp C | wind direction | speed KPH | gust KPH | rain 1hr cm | rain 24hr cm | rain mn cm | humidity % | barometer mb |
| 20260507051121 | 13 | 285 | 3.2 | 6.4 | 0.00 | 0.23 | 0.00 | 99 | 1006.5 |
| 20260507050142 | 13 | 281 | 3.2 | 8.0 | 0.00 | 0.23 | 0.00 | 99 | 1006.4 |
| 20260507045121 | 13 | 284 | 3.2 | 6.4 | 0.00 | 0.23 | 0.00 | 99 | 1006.4 |
| 20260507044142 | 13 | 285 | 3.2 | 6.4 | 0.00 | 0.23 | 0.00 | 99 | 1006.7 |
| 20260507043125 | 13 | 295 | 3.2 | 4.8 | 0.00 | 0.23 | 0.00 | 99 | 1007.0 |
| 20260507042123 | 13 | 294 | 3.2 | 6.4 | 0.00 | 0.23 | 0.00 | 99 | 1006.8 |
| 20260507041124 | 13 | 281 | 3.2 | 4.8 | 0.00 | 0.23 | 0.00 | 99 | 1006.9 |
| 20260507040121 | 13 | 295 | 3.2 | 9.7 | 0.00 | 0.23 | 0.00 | 99 | 1006.7 |
| 20260507035121 | 13 | 320 | 3.2 | 4.8 | 0.03 | 0.23 | 0.23 | 99 | 1006.7 |
| 20260507034145 | 13 | 288 | 4.8 | 8.0 | 0.03 | 0.23 | 0.23 | 99 | 1006.7 |
| 20260507033121 | 13 | 299 | 3.2 | 8.0 | 0.03 | 0.23 | 0.23 | 99 | 1006.6 |
| 20260507032142 | 13 | 280 | 6.4 | 11.3 | 0.03 | 0.23 | 0.23 | 99 | 1006.4 |
| 20260507031121 | 13 | 320 | 6.4 | 9.7 | 0.05 | 0.23 | 0.23 | 99 | 1006.5 |
| 20260507030143 | 14 | 334 | 6.4 | 9.7 | 0.08 | 0.23 | 0.23 | 99 | 1006.5 |
| 20260507025123 | 14 | 0 | 1.6 | 4.8 | 0.05 | 0.20 | 0.20 | 99 | 1006.6 |
| 20260507024121 | 14 | 203 | 0.0 | 0.0 | 0.05 | 0.20 | 0.20 | 99 | 1006.6 |
| 20260507023122 | 14 | 338 | 0.0 | 0.0 | 0.10 | 0.20 | 0.20 | 99 | 1006.8 |
| 20260507022123 | 14 | 265 | 3.2 | 6.4 | 0.10 | 0.20 | 0.20 | 99 | 1006.6 |
| 20260507021123 | 14 | 95 | 1.6 | 6.4 | 0.08 | 0.18 | 0.18 | 99 | 1006.0 |
| 20260507020122 | 14 | 96 | 0.0 | 3.2 | 0.05 | 0.15 | 0.15 | 99 | 1006.0 |
| 20260507015143 | 14 | 158 | 0.0 | 0.0 | 0.05 | 0.15 | 0.15 | 99 | 1006.4 |
| 20260507014122 | 14 | 207 | 1.6 | 3.2 | 0.05 | 0.15 | 0.15 | 99 | 1006.6 |
| 20260507013143 | 14 | 220 | 1.6 | 3.2 | 0.00 | 0.10 | 0.10 | 99 | 1006.2 |
| 20260507012142 | 14 | 213 | 0.0 | 3.2 | 0.00 | 0.10 | 0.10 | 99 | 1006.1 |
| 20260507011143 | 14 | 196 | 0.0 | 3.2 | 0.00 | 0.10 | 0.10 | 99 | 1006.2 |
| 20260507010121 | 14 | 212 | 1.6 | 3.2 | 0.00 | 0.10 | 0.10 | 99 | 1006.2 |
| 20260507005121 | 14 | 225 | 1.6 | 4.8 | 0.00 | 0.10 | 0.10 | 99 | 1006.2 |
| 20260507004142 | 15 | 263 | 1.6 | 3.2 | 0.00 | 0.10 | 0.10 | 99 | 1006.0 |
| 20260507003144 | 15 | 177 | 1.6 | 4.8 | 0.00 | 0.10 | 0.10 | 99 | 1006.2 |
| 20260507002121 | 15 | 195 | 1.6 | 3.2 | 0.00 | 0.10 | 0.10 | 99 | 1006.2 |
| 20260507001123 | 15 | 166 | 0.0 | 3.2 | 0.00 | 0.10 | 0.10 | 99 | 1006.2 |
| 20260507000121 | 15 | 241 | 1.6 | 4.8 | 0.00 | 0.10 | 0.10 | 99 | 1006.0 |
| 20260506235123 | 15 | 251 | 1.6 | 3.2 | 0.00 | 0.10 | 0.10 | 99 | 1006.0 |
| 20260506234145 | 15 | 182 | 1.6 | 4.8 | 0.00 | 0.10 | 0.10 | 99 | 1005.8 |
| 20260506233121 | 15 | 223 | 1.6 | 4.8 | 0.00 | 0.10 | 0.10 | 99 | 1006.0 |
| 20260506232142 | 15 | 200 | 1.6 | 4.8 | 0.00 | 0.10 | 0.10 | 99 | 1005.9 |
| 20260506231124 | 15 | 263 | 1.6 | 4.8 | 0.00 | 0.10 | 0.10 | 99 | 1005.8 |
| 20260506230121 | 15 | 250 | 3.2 | 6.4 | 0.00 | 0.10 | 0.10 | 99 | 1005.7 |
| 20260506225121 | 15 | 275 | 3.2 | 4.8 | 0.00 | 0.10 | 0.10 | 99 | 1005.7 |
| 20260506224144 | 15 | 255 | 3.2 | 4.8 | 0.00 | 0.10 | 0.10 | 99 | 1005.7 |
| 20260506223122 | 14 | 277 | 3.2 | 6.4 | 0.00 | 0.10 | 0.10 | 99 | 1005.6 |
| 20260506222122 | 15 | 234 | 4.8 | 6.4 | 0.00 | 0.10 | 0.10 | 99 | 1005.7 |
| 20260506221122 | 15 | 235 | 3.2 | 6.4 | 0.00 | 0.10 | 0.10 | 99 | 1005.7 |
| 20260506220122 | 15 | 242 | 4.8 | 8.0 | 0.00 | 0.10 | 0.10 | 99 | 1005.6 |
| 20260506215124 | 15 | 247 | 3.2 | 8.0 | 0.00 | 0.10 | 0.10 | 99 | 1005.6 |
| 20260506214123 | 15 | 237 | 3.2 | 6.4 | 0.00 | 0.10 | 0.10 | 99 | 1005.2 |
| 20260506213122 | 15 | 241 | 3.2 | 6.4 | 0.00 | 0.10 | 0.10 | 99 | 1005.2 |
| 20260506212124 | 15 | 236 | 4.8 | 8.0 | 0.00 | 0.10 | 0.10 | 99 | 1005.1 |
| 20260506211122 | 15 | 237 | 1.6 | 8.0 | 0.00 | 0.10 | 0.10 | 99 | 1005.0 |
| 20260506210121 | 15 | 258 | 1.6 | 4.8 | 0.00 | 0.10 | 0.10 | 99 | 1005.0 |
| 20260506205121 | 15 | 222 | 3.2 | 4.8 | 0.00 | 0.10 | 0.10 | 99 | 1005.0 |
| 20260506204121 | 15 | 253 | 3.2 | 8.0 | 0.00 | 0.10 | 0.10 | 99 | 1005.2 |
| 20260506203121 | 14 | 255 | 1.6 | 4.8 | 0.03 | 0.10 | 0.10 | 99 | 1005.2 |
| 20260506202145 | 14 | 203 | 3.2 | 6.4 | 0.05 | 0.10 | 0.10 | 99 | 1005.4 |
| 20260506201124 | 14 | 223 | 3.2 | 4.8 | 0.05 | 0.10 | 0.10 | 99 | 1005.7 |
| 20260506200121 | 14 | 224 | 3.2 | 6.4 | 0.05 | 0.10 | 0.10 | 99 | 1005.7 |
| 20260506195121 | 14 | 262 | 3.2 | 9.7 | 0.05 | 0.10 | 0.10 | 99 | 1005.7 |
| 20260506194123 | 14 | 259 | 4.8 | 8.0 | 0.05 | 0.10 | 0.10 | 99 | 1005.8 |
| 20260506193121 | 14 | 249 | 4.8 | 9.7 | 0.03 | 0.08 | 0.08 | 99 | 1006.1 |
| 20260506192121 | 14 | 247 | 8.0 | 19.3 | 0.00 | 0.05 | 0.05 | 99 | 1006.0 |
| 20260506191121 | 15 | 256 | 8.0 | 17.7 | 0.00 | 0.05 | 0.05 | 99 | 1005.9 |
| 20260506190146 | 15 | 253 | 8.0 | 16.1 | 0.00 | 0.05 | 0.05 | 99 | 1005.9 |
| 20260506185145 | 15 | 212 | 6.4 | 12.9 | 0.00 | 0.05 | 0.05 | 99 | 1005.7 |
| 20260506184124 | 15 | 168 | 4.8 | 6.4 | 0.00 | 0.05 | 0.05 | 99 | 1005.9 |
| 20260506183123 | 15 | 225 | 4.8 | 9.7 | 0.00 | 0.05 | 0.05 | 99 | 1006.2 |
| 20260506182127 | 15 | 220 | 4.8 | 8.0 | 0.03 | 0.05 | 0.05 | 99 | 1006.5 |
| 20260506181122 | 15 | 249 | 6.4 | 9.7 | 0.03 | 0.05 | 0.05 | 99 | 1006.4 |
| 20260506180146 | 15 | 215 | 4.8 | 8.0 | 0.03 | 0.05 | 0.05 | 99 | 1006.4 |
| 20260506175122 | 15 | 266 | 4.8 | 8.0 | 0.05 | 0.05 | 0.05 | 99 | 1006.4 |
| 20260506174123 | 15 | 252 | 4.8 | 9.7 | 0.05 | 0.05 | 0.05 | 99 | 1006.7 |
| 20260506173122 | 15 | 221 | 4.8 | 8.0 | 0.05 | 0.05 | 0.05 | 99 | 1006.7 |
| 20260506172122 | 15 | 235 | 6.4 | 12.9 | 0.03 | 0.03 | 0.03 | 99 | 1007.2 |
| 20260506171122 | 15 | 246 | 3.2 | 8.0 | 0.03 | 0.03 | 0.03 | 99 | 1007.4 |
| 20260506170121 | 15 | 231 | 4.8 | 14.5 | 0.03 | 0.03 | 0.03 | 99 | 1007.5 |
| 20260506165121 | 15 | 238 | 6.4 | 11.3 | 0.00 | 0.00 | 0.00 | 99 | 1007.5 |
| 20260506164143 | 15 | 205 | 4.8 | 11.3 | 0.00 | 0.00 | 0.00 | 97 | 1007.9 |
| 20260506163121 | 16 | 252 | 4.8 | 14.5 | 0.00 | 0.00 | 0.00 | 91 | 1008.0 |
| 20260506162121 | 16 | 241 | 6.4 | 12.9 | 0.00 | 0.00 | 0.00 | 89 | 1008.0 |
| 20260506161121 | 17 | 258 | 8.0 | 12.9 | 0.00 | 0.00 | 0.00 | 89 | 1008.1 |
| 20260506160121 | 17 | 241 | 6.4 | 11.3 | 0.00 | 0.00 | 0.00 | 87 | 1007.8 |
| 20260506155121 | 17 | 251 | 8.0 | 12.9 | 0.00 | 0.00 | 0.00 | 90 | 1007.8 |
| 20260506154121 | 16 | 235 | 8.0 | 16.1 | 0.00 | 0.00 | 0.00 | 90 | 1008.0 |
| 20260506153123 | 17 | 235 | 8.0 | 16.1 | 0.00 | 0.00 | 0.00 | 88 | 1008.2 |
| 20260506152122 | 18 | 267 | 6.4 | 14.5 | 0.00 | 0.00 | 0.00 | 87 | 1008.2 |
| 20260506151142 | 18 | 268 | 8.0 | 14.5 | 0.00 | 0.00 | 0.00 | 86 | 1008.4 |
| 20260506150121 | 18 | 220 | 8.0 | 14.5 | 0.00 | 0.00 | 0.00 | 84 | 1008.1 |
| 20260506145122 | 18 | 225 | 4.8 | 9.7 | 0.00 | 0.00 | 0.00 | 85 | 1008.1 |
| 20260506144122 | 17 | 193 | 4.8 | 11.3 | 0.00 | 0.00 | 0.00 | 88 | 1008.1 |
| 20260506143122 | 17 | 184 | 4.8 | 8.0 | 0.00 | 0.00 | 0.00 | 89 | 1007.9 |
| 20260506142122 | 17 | 269 | 6.4 | 9.7 | 0.00 | 0.00 | 0.00 | 88 | 1008.1 |
| 20260506141123 | 17 | 227 | 6.4 | 12.9 | 0.00 | 0.00 | 0.00 | 88 | 1008.2 |
| 20260506140122 | 17 | 222 | 6.4 | 9.7 | 0.00 | 0.00 | 0.00 | 87 | 1008.2 |
| 20260506135123 | 18 | 231 | 4.8 | 9.7 | 0.00 | 0.00 | 0.00 | 86 | 1008.2 |
| 20260506134144 | 18 | 235 | 8.0 | 11.3 | 0.00 | 0.00 | 0.00 | 86 | 1008.4 |
| 20260506133143 | 18 | 215 | 8.0 | 12.9 | 0.00 | 0.00 | 0.00 | 86 | 1008.4 |
| 20260506132122 | 18 | 210 | 6.4 | 12.9 | 0.00 | 0.00 | 0.00 | 86 | 1008.2 |
| 20260506131121 | 18 | 241 | 4.8 | 9.7 | 0.00 | 0.00 | 0.00 | 86 | 1008.2 |
| 20260506130121 | 17 | 225 | 4.8 | 9.7 | 0.00 | 0.00 | 0.00 | 87 | 1008.2 |
| 20260506125121 | 17 | 239 | 4.8 | 9.7 | 0.00 | 0.00 | 0.00 | 89 | 1008.2 |
| 20260506124145 | 16 | 232 | 6.4 | 12.9 | 0.00 | 0.00 | 0.00 | 91 | 1008.2 |
| 20260506123123 | 16 | 236 | 4.8 | 9.7 | 0.00 | 0.00 | 0.00 | 91 | 1008.2 |
| 20260506122122 | 16 | 221 | 6.4 | 12.9 | 0.00 | 0.00 | 0.00 | 90 | 1008.6 |
| 20260506121121 | 17 | 259 | 6.4 | 11.3 | 0.00 | 0.00 | 0.00 | 90 | 1008.6 |
| 20260506120121 | 16 | 241 | 6.4 | 9.7 | 0.00 | 0.00 | 0.00 | 93 | 1008.7 |
| 20260506115121 | 16 | 230 | 4.8 | 8.0 | 0.00 | 0.00 | 0.00 | 95 | 1008.7 |
| 20260506114121 | 16 | 259 | 4.8 | 8.0 | 0.00 | 0.00 | 0.00 | 95 | 1008.7 |
| 20260506113122 | 15 | 274 | 6.4 | 9.7 | 0.00 | 0.00 | 0.00 | 95 | 1008.6 |
| 20260506112123 | 15 | 261 | 4.8 | 8.0 | 0.00 | 0.00 | 0.00 | 96 | 1008.5 |
| 20260506111123 | 15 | 210 | 4.8 | 16.1 | 0.00 | 0.00 | 0.00 | 98 | 1008.6 |
| 20260506110122 | 14 | 206 | 4.8 | 11.3 | 0.00 | 0.00 | 0.00 | 99 | 1008.6 |
| 20260506105123 | 14 | 209 | 4.8 | 11.3 | 0.00 | 0.00 | 0.00 | 99 | 1008.6 |
| 20260506104122 | 13 | 229 | 4.8 | 9.7 | 0.00 | 0.00 | 0.00 | 99 | 1008.5 |
| 20260506103122 | 13 | 227 | 4.8 | 8.0 | 0.00 | 0.00 | 0.00 | 99 | 1008.5 |
| 20260506102122 | 12 | 207 | 4.8 | 6.4 | 0.00 | 0.00 | 0.00 | 99 | 1008.5 |
| 20260506101122 | 12 | 276 | 3.2 | 8.0 | 0.00 | 0.00 | 0.00 | 99 | 1008.4 |
| 20260506100124 | 12 | 239 | 4.8 | 9.7 | 0.00 | 0.00 | 0.00 | 99 | 1008.4 |
| 20260506095123 | 12 | 217 | 4.8 | 8.0 | 0.00 | 0.00 | 0.00 | 99 | 1008.4 |
| 20260506094123 | 12 | 219 | 3.2 | 8.0 | 0.00 | 0.00 | 0.00 | 99 | 1008.4 |
| 20260506093122 | 12 | 226 | 4.8 | 9.7 | 0.00 | 0.00 | 0.00 | 99 | 1008.4 |
| 20260506092121 | 12 | 198 | 3.2 | 6.4 | 0.00 | 0.00 | 0.00 | 99 | 1008.4 |
| 20260506091121 | 12 | 244 | 3.2 | 6.4 | 0.00 | 0.00 | 0.00 | 99 | 1008.6 |
| 20260506090121 | 12 | 216 | 3.2 | 6.4 | 0.00 | 0.00 | 0.00 | 99 | 1008.6 |
| 20260506085122 | 12 | 166 | 3.2 | 8.0 | 0.00 | 0.00 | 0.00 | 99 | 1008.7 |
| 20260506084121 | 12 | 177 | 3.2 | 8.0 | 0.00 | 0.00 | 0.00 | 99 | 1008.7 |
| 20260506083122 | 12 | 210 | 3.2 | 6.4 | 0.00 | 0.00 | 0.00 | 99 | 1008.7 |
| 20260506082121 | 12 | 195 | 3.2 | 6.4 | 0.00 | 0.00 | 0.00 | 99 | 1008.7 |
| 20260506081121 | 12 | 161 | 3.2 | 6.4 | 0.00 | 0.00 | 0.00 | 99 | 1008.8 |
| 20260506080152 | 12 | 191 | 3.2 | 6.4 | 0.00 | 0.00 | 0.00 | 99 | 1008.9 |
| 20260506080142 | 12 | 193 | 3.2 | 6.4 | 0.00 | 0.00 | 0.00 | 99 | 1008.9 |
| 20260506073143 | 12 | 210 | 3.2 | 8.0 | 0.00 | 0.00 | 0.00 | 99 | 1008.9 |
| 20260506072142 | 12 | 159 | 1.6 | 4.8 | 0.00 | 0.00 | 0.00 | 99 | 1009.1 |
| 20260506071123 | 13 | 182 | 1.6 | 4.8 | 0.00 | 0.00 | 0.00 | 99 | 1009.1 |
| 20260506070121 | 13 | 181 | 3.2 | 6.4 | 0.00 | 0.00 | 0.00 | 99 | 1009.1 |
| 20260506062144 | 13 | 298 | 4.8 | 8.0 | 0.00 | 0.00 | 0.00 | 99 | 1009.0 |
| 20260506061122 | 13 | 227 | 4.8 | 8.0 | 0.00 | 0.00 | 0.00 | 99 | 1009.0 |
| 20260506060122 | 13 | 213 | 3.2 | 6.4 | 0.00 | 0.00 | 0.00 | 99 | 1009.0 |